Change the Weather History Date:

Monday, October 15, 2012

  Actual Average Record
Temperature  
Mean Temperature 65 °F 60 °F  
Max Temperature 79 °F 73 °F 86 °F (2013)
Min Temperature 51 °F 49 °F 42 °F (2003)
Degree Days  
Heating Degree Days 0    
Month to date heating degree days 48  
Since 1 July heating degree days 413  
Cooling Degree Days 0    
Month to date cooling degree days 28  
Year to date cooling degree days 54  
Growing Degree Days 14 (Base 50)    
Moisture  
Dew Point 54 °F    
Average Humidity 69    
Maximum Humidity 96    
Minimum Humidity 42    
Precipitation  
Precipitation 0.01 in - 0.63 in (1972)
Month to date precipitation 0.10  
Year to date precipitation 12.08  
Since 1 July precipitation 0.15  
Sea Level Pressure  
Sea Level Pressure 30.02 in    
Wind  
Wind Speed 3 mph (South)    
Max Wind Speed 8 mph    
Max Gust Speed 29 mph    
Visibility 10 miles    
Events      
T = Trace of Precipitation, MM = Missing Value Source: NWS Daily Summary

Daily Weather History Graph

Daily Weather History Graph

Search for Another Location

Airport or City:

Trip Planner

Search our weather history database for the weather conditions in past years. The results will help you decide how hot, cold, wet, or windy it might be!

Date:

Astronomy

Oct. 15, 2012 Rise Set
Actual Time 7:15 AM PDT 6:29 PM PDT
Civil Twilight 6:49 AM PDT 6:55 PM PDT
Nautical Twilight 6:19 AM PDT 7:25 PM PDT
Astronomical Twilight 5:48 AM PDT 7:55 PM PDT
Moon 7:30 AM PDT (10/15) 6:35 PM PDT (10/15)
Length of Visible Light 12h 06m
Length of Day
11h 14m
New Moon, 0% of the Moon is Illuminated
Oct 15
New Moon
Oct 21
First Quarter
Oct 29
Full
Nov 6
Last Quarter
Nov 13
New

Hourly Weather History & Observations

Time (PDT) Temp. Dew Point Humidity Pressure Visibility Wind Dir Wind Speed Gust Speed Precip Events Conditions
12:53 AM 55.0 °F 53.1 °F 93% 30.07 in 10.0 mi Calm Calm - N/A   Clear
1:53 AM 55.9 °F 54.0 °F 93% 30.08 in 10.0 mi West 6.9 mph - N/A   Clear
2:53 AM 55.0 °F 52.0 °F 89% 30.06 in 10.0 mi Calm Calm - N/A   Clear
3:53 AM 53.1 °F 51.1 °F 93% 30.04 in 10.0 mi Calm Calm - N/A   Clear
5:53 AM 51.1 °F 50.0 °F 96% 30.06 in 10.0 mi Calm Calm - 0.01 in   Clear
6:53 AM 52.0 °F 50.0 °F 93% 30.06 in 10.0 mi Calm Calm - N/A   Clear
7:53 AM 52.0 °F 50.0 °F 93% 30.06 in 10.0 mi Calm Calm - N/A   Clear
8:53 AM 55.9 °F 53.1 °F 90% 30.07 in 10.0 mi East 8.1 mph - N/A   Clear
9:53 AM 61.0 °F 55.0 °F 81% 30.07 in 10.0 mi Calm Calm - N/A   Clear
10:53 AM 68.0 °F 55.0 °F 63% 30.06 in 10.0 mi Calm Calm - N/A   Clear
11:53 AM 73.0 °F 55.9 °F 55% 30.05 in 10.0 mi South 3.5 mph - N/A   Clear
12:53 PM 75.0 °F 54.0 °F 48% 30.03 in 10.0 mi SW 5.8 mph - N/A   Clear
1:53 PM 77.0 °F 54.0 °F 45% 29.99 in 10.0 mi South 3.5 mph - N/A   Clear
2:53 PM 78.1 °F 54.0 °F 43% 29.97 in 10.0 mi South 6.9 mph - N/A   Clear
3:53 PM 75.9 °F 53.1 °F 45% 29.96 in 10.0 mi South 5.8 mph - N/A   Clear
4:53 PM 75.9 °F 55.0 °F 48% 29.95 in 10.0 mi SE 4.6 mph - N/A   Clear
5:53 PM 70.0 °F 55.9 °F 61% 29.96 in 10.0 mi South 5.8 mph - N/A   Clear
6:53 PM 63.0 °F 55.9 °F 78% 29.96 in 10.0 mi SSW 4.6 mph - N/A   Clear
7:53 PM 61.0 °F 55.0 °F 81% 29.98 in 10.0 mi SSW 3.5 mph - N/A   Clear
8:53 PM 57.9 °F 54.0 °F 87% 29.99 in 10.0 mi SSW 3.5 mph - N/A   Clear
9:53 PM 57.9 °F 55.0 °F 90% 30.00 in 10.0 mi Calm Calm - N/A   Clear
10:53 PM 57.9 °F 54.0 °F 87% 30.00 in 10.0 mi Calm Calm - N/A   Clear
11:53 PM 55.9 °F 53.1 °F 90% 30.01 in 10.0 mi Calm Calm - N/A   Clear